EW7321 Gulfport FL US current weather conditions

sailwx.info

Wind from 085 at 6 knots gusting 11

Air temperature 22.2° C
Dewpoint 20.3° C

Last reported at 2018-Dec-14 19:10 UTC.
Time now 2018-Dec-14 19:51 UTC

Location: N 27°45' W 082°42'.
View on Google Maps.

See reports from other nearby stations

  
Tides and Currents Weather Stations Pressure Air Temp Water Temp Dewpoint Dewpoint Depression Visibility Wind Speed Wind Dir Waves Ship Positions
date/time (UTC)wind fromknots sea level pressurealtimeterstation pressurevisibilityair tempwater tempwave heightnotes
2018-Dec-14 19:10 085 6 gusting 11 22.2
2018-Dec-14 19:03 147 6 gusting 12 22.2
2018-Dec-14 18:58 198 6 gusting 15 22.8
2018-Dec-14 18:53 148 6 gusting 16 22.2
2018-Dec-14 18:48 192 6 gusting 16 22.2
2018-Dec-14 18:43 127 5 gusting 13 22.2
2018-Dec-14 18:38 136 5 gusting 13 22.2
2018-Dec-14 18:33 091 6 gusting 13 22.2
2018-Dec-14 18:28 186 6 gusting 13 22.2
2018-Dec-14 18:23 153 4 gusting 13 22.2
2018-Dec-14 18:18 135 3 gusting 9 22.2
2018-Dec-14 18:13 203 3 gusting 9 22.2
2018-Dec-14 18:08 126 3 gusting 9 22.2
2018-Dec-14 18:03 139 4 gusting 9 21.7
2018-Dec-14 17:58 139 3 gusting 8 21.7
2018-Dec-14 17:53 156 2 gusting 6 21.7
2018-Dec-14 17:48 179 2 gusting 6 21.7
2018-Dec-14 17:43 286 2 gusting 7 21.7
2018-Dec-14 17:38 162 2 gusting 7 21.7
2018-Dec-14 17:33 139 2 gusting 8 21.7
2018-Dec-14 17:28 079 2 gusting 8 21.7
2018-Dec-14 17:23 124 2 gusting 6 21.7
2018-Dec-14 17:18 108 2 gusting 6 21.7
2018-Dec-14 17:13 148 1 gusting 5 21.1
2018-Dec-14 17:08 150 1 gusting 4 21.1
2018-Dec-14 17:02 150 1 gusting 6 21.1
2018-Dec-14 16:57 184 1 gusting 6 21.1
2018-Dec-14 16:52 155 1 gusting 4 21.1
2018-Dec-14 16:47 144 0 gusting 4 21.1
2018-Dec-14 16:42 214 0 gusting 3 21.1
2018-Dec-14 16:37 165 0 gusting 5 20.6
2018-Dec-14 16:32 105 0 gusting 5 20.6
2018-Dec-14 16:27 148 0 gusting 2 20.6
2018-Dec-14 16:22 063 0 gusting 3 20.6
2018-Dec-14 16:17 239 0 gusting 2 20.6
2018-Dec-14 16:12 077 0 gusting 4 20.6
2018-Dec-14 16:05 061 0 gusting 4 20.6
2018-Dec-14 16:00 081 0 gusting 3 20.6
2018-Dec-14 15:50 072 20.6
2018-Dec-14 15:45 065 20.6
2018-Dec-14 15:40 265 0 gusting 4 20.6
2018-Dec-14 15:35 158 1 gusting 4 20.6
2018-Dec-14 15:30 107 0 gusting 4 20.6
2018-Dec-14 15:25 092 0 gusting 3 20.6
2018-Dec-14 15:20 144 0 gusting 3 20.6
2018-Dec-14 15:15 119 0 gusting 3 20.6
2018-Dec-14 15:10 181 0 gusting 3 20.6
2018-Dec-14 15:03 086 0 gusting 3 20.6
2018-Dec-14 14:58 100 0 gusting 3 20.6
2018-Dec-14 14:53 136 0 gusting 5 20.6
2018-Dec-14 14:48 119 1 gusting 5 20.6
2018-Dec-14 14:43 155 1 gusting 5 20.6
2018-Dec-14 14:38 109 1 gusting 6 20.6
2018-Dec-14 14:33 208 1 gusting 6 20.6
2018-Dec-14 14:28 152 1 gusting 5 20.6
2018-Dec-14 14:23 103 1 gusting 5 20.6
2018-Dec-14 14:18 233 1 gusting 5 20.6
2018-Dec-14 14:13 098 1 gusting 5 20.6
2018-Dec-14 14:08 139 2 gusting 6 20.6
2018-Dec-14 14:03 143 2 gusting 6 21.1
2018-Dec-14 13:58 185 2 gusting 6 21.1
2018-Dec-14 13:53 164 2 gusting 6 21.7
2018-Dec-14 13:48 163 2 gusting 6 21.7
2018-Dec-14 13:43 148 2 gusting 6 21.1
2018-Dec-14 13:38 154 2 gusting 6 21.1
2018-Dec-14 13:33 086 2 gusting 6 21.1
2018-Dec-14 13:28 193 2 gusting 8 21.1
2018-Dec-14 13:23 147 3 gusting 9 21.1
2018-Dec-14 13:18 208 4 gusting 9 21.7
2018-Dec-14 13:13 182 4 gusting 8 21.7
2018-Dec-14 13:08 179 4 gusting 8 21.1
2018-Dec-14 13:02 158 4 gusting 8 21.1
2018-Dec-14 12:57 126 3 gusting 8 21.1
2018-Dec-14 12:52 094 3 gusting 8 21.1
2018-Dec-14 12:47 173 3 gusting 8 21.1
2018-Dec-14 12:42 148 4 gusting 7 21.1
2018-Dec-14 12:37 186 4 gusting 7 21.1
2018-Dec-14 12:32 200 3 gusting 7 21.1
2018-Dec-14 12:27 134 3 gusting 7 20.6
2018-Dec-14 12:22 161 3 gusting 7 20.6
2018-Dec-14 12:17 164 3 gusting 8 20.6
2018-Dec-14 12:11 124 3 gusting 7 20.6
2018-Dec-14 12:04 143 3 gusting 9 20.6
2018-Dec-14 11:59 191 4 gusting 11 20.6
2018-Dec-14 11:54 139 4 gusting 11 20.6
2018-Dec-14 11:49 174 4 gusting 9 20.6
2018-Dec-14 11:44 150 4 gusting 9 20.6
2018-Dec-14 11:39 165 4 gusting 9 20.6
2018-Dec-14 11:34 103 4 gusting 12 20.6
2018-Dec-14 11:29 174 5 gusting 12 20.6
2018-Dec-14 11:24 155 6 gusting 12 20.6
2018-Dec-14 11:19 141 5 gusting 12 20.6
2018-Dec-14 11:14 201 4 gusting 11 20.6
2018-Dec-14 11:09 128 5 gusting 10 21.1
2018-Dec-14 11:03 117 5 gusting 10 21.1
2018-Dec-14 10:58 158 4 gusting 9 21.1
2018-Dec-14 10:53 126 4 gusting 9 21.1
2018-Dec-14 10:48 163 3 gusting 9 21.1
2018-Dec-14 10:43 171 4 gusting 10 21.1
2018-Dec-14 10:38 159 4 gusting 10 21.1
2018-Dec-14 10:33 185 5 gusting 13 21.1
2018-Dec-14 10:28 139 5 gusting 13 21.1
2018-Dec-14 10:23 165 4 gusting 10 21.1
2018-Dec-14 10:18 200 4 gusting 9 20.6
2018-Dec-14 10:13 194 4 gusting 11 20.6
2018-Dec-14 10:08 117 5 gusting 11 20.6
2018-Dec-14 10:02 150 5 gusting 9 20.6
2018-Dec-14 09:57 146 4 gusting 8 20.6
2018-Dec-14 09:52 150 4 gusting 9 20.6
2018-Dec-14 09:47 104 4 gusting 10 20.6
2018-Dec-14 09:42 160 3 gusting 10 20.6
2018-Dec-14 09:37 110 3 gusting 7 20.6
2018-Dec-14 09:32 079 3 gusting 7 20.6
2018-Dec-14 09:27 205 4 gusting 9 20.6
2018-Dec-14 09:22 199 4 gusting 9 20.6
2018-Dec-14 09:17 161 4 gusting 9 20.6
2018-Dec-14 09:12 171 5 gusting 10 20.6
2018-Dec-14 09:07 120 4 gusting 10 20.6
2018-Dec-14 09:02 170 3 gusting 10 20.6
2018-Dec-14 08:57 191 4 gusting 12 20.6
2018-Dec-14 08:52 127 4 gusting 12 20.6
2018-Dec-14 08:47 123 4 gusting 9 20.6
2018-Dec-14 08:42 162 4 gusting 9 20.6
2018-Dec-14 08:37 155 4 gusting 9 20.6
2018-Dec-14 08:32 161 3 gusting 7 20.0
2018-Dec-14 08:27 082 4 gusting 12 20.0
2018-Dec-14 08:22 171 4 gusting 12 20.0
2018-Dec-14 08:17 163 4 gusting 12 20.0
2018-Dec-14 08:12 095 4 gusting 8 20.0
2018-Dec-14 08:07 177 4 gusting 12 20.0
2018-Dec-14 08:00 144 5 gusting 12 20.0
2018-Dec-14 07:55 139 5 gusting 9 20.0
2018-Dec-14 07:50 148 5 gusting 9 20.0
2018-Dec-14 07:45 143 4 gusting 10 20.0
2018-Dec-14 07:40 113 4 gusting 10 20.0
2018-Dec-14 07:35 136 4 gusting 10 20.0
2018-Dec-14 07:30 174 4 gusting 11 20.0
2018-Dec-14 07:25 105 4 gusting 11 20.0
2018-Dec-14 07:20 132 4 gusting 9 20.0
2018-Dec-14 07:15 126 4 gusting 8 20.0
2018-Dec-14 07:10 158 4 gusting 10 20.0
2018-Dec-14 07:03 141 4 gusting 11 20.0
2018-Dec-14 06:58 142 4 gusting 11 20.0
2018-Dec-14 06:53 162 4 gusting 12 20.0
2018-Dec-14 06:48 131 4 gusting 12 20.0
2018-Dec-14 06:43 130 5 gusting 11 20.0
2018-Dec-14 06:38 126 5 gusting 11 20.0
2018-Dec-14 06:33 146 4 gusting 9 20.0
2018-Dec-14 06:28 108 4 gusting 9 20.0
2018-Dec-14 06:23 160 4 gusting 9 20.0
2018-Dec-14 06:18 178 4 gusting 9 20.0
2018-Dec-14 06:13 152 4 gusting 7 20.0
2018-Dec-14 06:08 205 4 gusting 10 20.0
2018-Dec-14 06:00 115 3 gusting 9 20.0
2018-Dec-14 05:55 189 3 gusting 7 20.0
2018-Dec-14 05:50 103 4 gusting 8 20.0
2018-Dec-14 05:45 087 3 gusting 8 20.0
2018-Dec-14 05:40 185 2 gusting 8 20.0
2018-Dec-14 05:35 093 3 gusting 8 20.0
2018-Dec-14 05:30 129 3 gusting 9 20.0
2018-Dec-14 05:25 116 3 gusting 10 20.0
2018-Dec-14 05:20 155 3 gusting 10 20.0
2018-Dec-14 05:15 150 3 gusting 8 20.6
2018-Dec-14 05:04 104 2 gusting 7 20.6
2018-Dec-14 04:59 101 3 gusting 8 20.6
2018-Dec-14 04:54 127 3 gusting 9 20.6
2018-Dec-14 04:49 140 4 gusting 9 20.6
2018-Dec-14 04:44 169 3 gusting 7 20.6
2018-Dec-14 04:39 131 3 gusting 9 20.6
2018-Dec-14 04:34 118 3 gusting 9 20.6
2018-Dec-14 04:29 071 3 gusting 8 21.1
2018-Dec-14 04:24 091 3 gusting 8 21.1
2018-Dec-14 04:19 207 3 gusting 8 21.1
2018-Dec-14 04:14 187 3 gusting 8 21.1
2018-Dec-14 04:09 146 3 gusting 9 21.1
2018-Dec-14 04:03 090 3 gusting 9 21.1
2018-Dec-14 03:58 211 3 gusting 7 21.1
2018-Dec-14 03:53 084 3 gusting 8 21.1
2018-Dec-14 03:48 115 2 gusting 8 21.1
2018-Dec-14 03:43 109 2 gusting 6 21.1
2018-Dec-14 03:38 156 2 gusting 6 21.1
2018-Dec-14 03:33 072 2 gusting 7 21.1
2018-Dec-14 03:28 107 2 gusting 7 21.1
2018-Dec-14 03:23 155 3 gusting 7 21.1
2018-Dec-14 03:18 094 3 gusting 7 21.1
2018-Dec-14 03:13 114 3 gusting 9 21.1
2018-Dec-14 03:08 109 3 gusting 8 21.1
2018-Dec-14 03:02 165 2 gusting 7 21.1
2018-Dec-14 02:57 097 3 gusting 9 21.1
2018-Dec-14 02:52 091 3 gusting 9 21.1
2018-Dec-14 02:47 127 3 gusting 9 21.1
2018-Dec-14 02:42 151 2 gusting 7 21.1
2018-Dec-14 02:37 054 2 gusting 7 21.1
2018-Dec-14 02:32 063 2 gusting 7 21.1
2018-Dec-14 02:27 077 2 gusting 7 21.1
2018-Dec-14 02:22 165 2 gusting 8 21.7
2018-Dec-14 02:17 049 2 gusting 8 21.7
2018-Dec-14 02:12 164 3 gusting 11 21.7
2018-Dec-14 02:02 092 4 gusting 13 21.7
2018-Dec-14 01:57 108 3 gusting 13 21.7
2018-Dec-14 01:52 088 3 gusting 10 21.7
2018-Dec-14 01:47 097 2 gusting 10 21.7
2018-Dec-14 01:42 136 2 gusting 6 21.7
2018-Dec-14 01:37 141 2 gusting 6 21.7
2018-Dec-14 01:32 155 2 gusting 6 21.7
2018-Dec-14 01:27 138 2 gusting 6 21.7
2018-Dec-14 01:22 057 1 gusting 6 21.7
2018-Dec-14 01:17 148 0 gusting 6 21.7
2018-Dec-14 01:12 092 0 gusting 5 21.7
2018-Dec-14 01:07 087 0 gusting 4 21.7
2018-Dec-14 01:02 100 0 gusting 3 21.7
2018-Dec-14 00:57 069 0 gusting 3 21.1
2018-Dec-14 00:52 116 21.1
2018-Dec-14 00:47 108 21.1
2018-Dec-14 00:42 120 21.1
2018-Dec-14 00:37 091 21.1
2018-Dec-14 00:32 079 21.1
2018-Dec-14 00:27 062 21.1
2018-Dec-14 00:22 062 21.1
2018-Dec-14 00:17 093 21.1
2018-Dec-14 00:11 093 21.1
2018-Dec-14 00:03 093 21.1
2018-Dec-13 23:58 093 21.1
2018-Dec-13 23:53 093 21.7
2018-Dec-13 23:48 093 21.7
2018-Dec-13 23:43 094 21.7
2018-Dec-13 23:38 094 21.7
2018-Dec-13 23:33 222 21.7
2018-Dec-13 23:28 222 21.7
2018-Dec-13 23:23 222 21.7
2018-Dec-13 23:18 222 21.7
2018-Dec-13 23:13 222 21.7
2018-Dec-13 23:08 222 21.7
2018-Dec-13 23:03 222 22.2
2018-Dec-13 22:58 222 22.2
2018-Dec-13 22:53 222 22.2
2018-Dec-13 22:48 222 22.2
2018-Dec-13 22:43 222 22.2
2018-Dec-13 22:38 222 22.2
2018-Dec-13 22:33 222 22.8
2018-Dec-13 22:28 222 22.8
2018-Dec-13 22:23 222 22.8
2018-Dec-13 22:18 222 22.8
2018-Dec-13 22:13 222 22.8
2018-Dec-13 22:08 222 23.3
2018-Dec-13 22:02 222 23.3
2018-Dec-13 21:57 222 23.3
2018-Dec-13 21:52 223 23.3
2018-Dec-13 21:47 223 23.3
2018-Dec-13 21:42 117 0 gusting 5 23.3
2018-Dec-13 21:37 117 0 gusting 5 23.3
2018-Dec-13 21:32 121 0 gusting 5 23.9
2018-Dec-13 21:27 095 0 gusting 3 23.9
2018-Dec-13 21:22 092 1 gusting 4 23.9
2018-Dec-13 21:17 195 1 gusting 6 23.9
2018-Dec-13 21:12 139 1 gusting 3 23.9
2018-Dec-13 21:04 140 1 gusting 6 23.9
2018-Dec-13 20:59 157 1 gusting 4 23.9
2018-Dec-13 20:54 165 2 gusting 7 23.9
2018-Dec-13 20:49 152 3 gusting 7 23.9
2018-Dec-13 20:44 162 3 gusting 8 23.9
2018-Dec-13 20:39 184 2 gusting 8 23.9
2018-Dec-13 20:34 124 2 gusting 6 23.9
2018-Dec-13 20:29 140 2 gusting 6 23.9
2018-Dec-13 20:24 176 2 gusting 6 24.4
2018-Dec-13 20:19 163 2 gusting 6 24.4
2018-Dec-13 20:14 228 2 gusting 6 24.4
2018-Dec-13 20:09 139 2 gusting 6 24.4
2018-Dec-13 20:04 079 2 gusting 6 24.4
2018-Dec-13 19:59 210 2 gusting 7 24.4
2018-Dec-13 19:54 120 3 gusting 7 24.4
2018-Dec-13 19:49 099 3 gusting 7 24.4
2018-Dec-13 19:44 178 3 gusting 8 24.4
2018-Dec-13 19:39 172 4 gusting 8 24.4
2018-Dec-13 19:34 084 3 gusting 8 24.4
2018-Dec-13 19:29 158 3 gusting 7 24.4
2018-Dec-13 19:24 084 3 gusting 9 24.4
2018-Dec-13 19:19 086 4 gusting 9 24.4
2018-Dec-13 19:14 205 3 gusting 8 24.4
2018-Dec-13 19:09 151 3 gusting 8 24.4
2018-Dec-13 19:04 161 3 gusting 6 23.9
2018-Dec-13 18:59 154 3 gusting 7 23.9
2018-Dec-13 18:54 081 3 gusting 7 23.9
2018-Dec-13 18:49 168 3 gusting 7 23.3
2018-Dec-13 18:44 165 2 gusting 7 23.3
2018-Dec-13 18:39 130 3 gusting 9 23.9
2018-Dec-13 18:34 140 3 gusting 9 23.9
2018-Dec-13 18:29 116 2 gusting 7 23.9
2018-Dec-13 18:24 096 2 gusting 6 23.9
2018-Dec-13 18:19 113 2 gusting 9 23.9
2018-Dec-13 18:14 169 2 gusting 9 23.9
2018-Dec-13 18:09 128 2 gusting 7 23.9
2018-Dec-13 18:02 165 2 gusting 9 23.3
2018-Dec-13 17:57 042 2 gusting 8 23.3
2018-Dec-13 17:52 079 2 gusting 8 23.3
2018-Dec-13 17:47 053 2 gusting 9 23.3
2018-Dec-13 17:42 081 3 gusting 9 23.3
2018-Dec-13 17:37 117 4 gusting 9 23.3
2018-Dec-13 17:32 104 3 gusting 9 23.3
2018-Dec-13 17:27 086 2 gusting 8 23.3
2018-Dec-13 17:22 066 1 gusting 6 23.3
2018-Dec-13 17:17 047 2 gusting 8 22.8
2018-Dec-13 17:12 064 3 gusting 8 22.8
2018-Dec-13 17:07 129 3 gusting 8 22.8
2018-Dec-13 17:02 087 2 gusting 8 22.8
2018-Dec-13 16:57 098 2 gusting 7 22.8
2018-Dec-13 16:52 105 2 gusting 9 22.2
2018-Dec-13 16:47 121 3 gusting 10 22.2
2018-Dec-13 16:42 070 4 gusting 11 22.2
2018-Dec-13 16:37 070 4 gusting 11 21.7
2018-Dec-13 16:32 179 3 gusting 10 21.7
2018-Dec-13 16:27 089 3 gusting 10 21.1
2018-Dec-13 16:22 094 3 gusting 8 21.1
2018-Dec-13 16:17 031 2 gusting 8 21.1
2018-Dec-13 16:12 044 2 gusting 6 21.1
2018-Dec-13 16:05 121 1 gusting 8 20.6
2018-Dec-13 15:55 094 2 gusting 6 20.6
2018-Dec-13 15:50 058 1 gusting 6 20.0
2018-Dec-13 15:45 082 2 gusting 6 20.0
2018-Dec-13 15:40 074 2 gusting 6 20.0
2018-Dec-13 15:35 069 1 gusting 6 20.0
2018-Dec-13 15:30 094 1 gusting 6 20.0
2018-Dec-13 15:25 082 1 gusting 6 20.0
2018-Dec-13 15:20 141 2 gusting 6 20.0
2018-Dec-13 15:15 074 2 gusting 6 19.4
2018-Dec-13 15:04 102 1 gusting 6 19.4
2018-Dec-13 14:59 084 1 gusting 10 19.4
2018-Dec-13 14:54 113 2 gusting 10 18.9
2018-Dec-13 14:49 014 2 gusting 7 18.9
2018-Dec-13 14:44 024 1 gusting 7 18.9
2018-Dec-13 14:39 066 0 gusting 5 18.9
2018-Dec-13 14:34 084 0 gusting 6 18.9
2018-Dec-13 14:29 063 1 gusting 6 18.3
2018-Dec-13 14:24 349 0 gusting 5 18.3
2018-Dec-13 14:19 071 0 gusting 5 18.3
2018-Dec-13 14:14 035 0 gusting 4 17.8
2018-Dec-13 14:09 030 0 gusting 3 17.8
2018-Dec-13 14:02 326 0 gusting 6 17.8
2018-Dec-13 13:57 011 0 gusting 6 17.2
2018-Dec-13 13:52 335 0 gusting 6 17.2
2018-Dec-13 13:47 326 0 gusting 6 17.2
2018-Dec-13 13:42 051 0 gusting 6 16.7
2018-Dec-13 13:37 086 16.7
2018-Dec-13 13:32 326 16.7
2018-Dec-13 13:27 346 16.1
2018-Dec-13 13:22 310 15.6
2018-Dec-13 13:17 311 15.6
2018-Dec-13 13:12 302 15.6
2018-Dec-13 13:07 335 15.6
2018-Dec-13 13:00 340 15.0
2018-Dec-13 12:55 349 15.0
2018-Dec-13 12:50 348 15.0
2018-Dec-13 12:45 333 15.0
2018-Dec-13 12:40 352 15.0
2018-Dec-13 12:35 317 15.0
2018-Dec-13 12:30 326 15.0
2018-Dec-13 12:25 354 15.0
2018-Dec-13 12:20 337 15.0
2018-Dec-13 12:15 006 15.0
2018-Dec-13 12:10 314 15.0
2018-Dec-13 12:03 014 15.0
2018-Dec-13 11:58 352 15.0
2018-Dec-13 11:53 307 14.4
2018-Dec-13 11:48 076 0 gusting 2 14.4
2018-Dec-13 11:43 312 14.4
2018-Dec-13 11:38 350 14.4
2018-Dec-13 11:33 026 14.4
2018-Dec-13 11:28 030 14.4
2018-Dec-13 11:23 324 14.4
2018-Dec-13 11:18 324 14.4
2018-Dec-13 11:13 076 14.4
2018-Dec-13 11:08 340 14.4
2018-Dec-13 11:02 350 14.4
2018-Dec-13 10:57 319 14.4
2018-Dec-13 10:52 340 14.4
2018-Dec-13 10:47 080 14.4
2018-Dec-13 10:42 346 14.4
2018-Dec-13 10:37 327 14.4
2018-Dec-13 10:32 001 14.4
2018-Dec-13 10:27 327 13.9
2018-Dec-13 10:22 318 14.4
2018-Dec-13 10:17 322 14.4
2018-Dec-13 10:12 339 14.4
2018-Dec-13 10:07 317 14.4
2018-Dec-13 10:02 343 14.4
2018-Dec-13 09:57 352 14.4
2018-Dec-13 09:52 313 14.4
2018-Dec-13 09:47 322 14.4
2018-Dec-13 09:42 315 14.4
2018-Dec-13 09:37 310 14.4
2018-Dec-13 09:32 309 14.4
2018-Dec-13 09:27 322 14.4
2018-Dec-13 09:22 341 14.4
2018-Dec-13 09:17 341 14.4
2018-Dec-13 09:11 312 14.4
2018-Dec-13 09:04 070 14.4
2018-Dec-13 08:59 346 14.4
2018-Dec-13 08:54 030 14.4
2018-Dec-13 08:49 060 14.4
2018-Dec-13 08:44 104 14.4
2018-Dec-13 08:39 058 14.4
2018-Dec-13 08:34 037 14.4
2018-Dec-13 08:29 007 14.4
2018-Dec-13 08:24 071 14.4
2018-Dec-13 08:19 358 14.4
2018-Dec-13 08:14 094 14.4
2018-Dec-13 08:09 030 14.4
2018-Dec-13 08:04 048 14.4
2018-Dec-13 07:59 350 14.4
2018-Dec-13 07:54 327 14.4
2018-Dec-13 07:49 053 14.4
2018-Dec-13 07:44 058 14.4
2018-Dec-13 07:39 062 14.4
2018-Dec-13 07:34 065 15.0
2018-Dec-13 07:29 069 15.0
2018-Dec-13 07:24 355 0 gusting 3 15.0
2018-Dec-13 07:19 084 0 gusting 4 15.0
2018-Dec-13 07:14 075 0 gusting 4 15.0
2018-Dec-13 07:09 044 15.0
2018-Dec-13 07:03 033 0 gusting 2 14.4
2018-Dec-13 06:58 011 14.4
2018-Dec-13 06:53 342 14.4
2018-Dec-13 06:48 082 14.4
2018-Dec-13 06:43 034 14.4
2018-Dec-13 06:38 337 14.4
2018-Dec-13 06:33 059 14.4
2018-Dec-13 06:28 039 14.4
2018-Dec-13 06:23 047 14.4
2018-Dec-13 06:18 119 0 gusting 4 14.4
2018-Dec-13 06:13 050 0 gusting 3 14.4
2018-Dec-13 06:08 055 14.4
2018-Dec-13 06:02 032 14.4
2018-Dec-13 05:57 006 0 gusting 6 14.4
2018-Dec-13 05:52 043 14.4
2018-Dec-13 05:47 115 15.0
2018-Dec-13 05:42 018 14.4
2018-Dec-13 05:37 116 14.4
2018-Dec-13 05:32 038 14.4
2018-Dec-13 05:27 063 14.4
2018-Dec-13 05:22 057 14.4
2018-Dec-13 05:17 038 14.4
2018-Dec-13 05:12 029 14.4
2018-Dec-13 05:07 033 14.4
2018-Dec-13 05:00 350 14.4
2018-Dec-13 04:50 074 13.9
2018-Dec-13 04:45 075 13.9
2018-Dec-13 04:40 064 13.3
2018-Dec-13 04:35 098 13.3
2018-Dec-13 04:25 006 13.3
2018-Dec-13 04:20 349 13.3
2018-Dec-13 04:15 349 13.3
2018-Dec-13 04:04 349 13.3
2018-Dec-13 03:59 349 13.3
2018-Dec-13 03:54 349 13.3
2018-Dec-13 03:49 349 13.3
2018-Dec-13 03:44 349 13.3
2018-Dec-13 03:39 030 13.3
2018-Dec-13 03:34 013 13.3
2018-Dec-13 03:29 326 13.3
2018-Dec-13 03:24 326 13.3
2018-Dec-13 03:19 326 13.3
2018-Dec-13 03:14 329 13.3
2018-Dec-13 03:09 342 13.3
2018-Dec-13 03:03 342 13.3
2018-Dec-13 02:58 342 13.3
2018-Dec-13 02:53 348 13.3
2018-Dec-13 02:48 348 13.3
2018-Dec-13 02:43 348 13.3
2018-Dec-13 02:38 348 13.3
2018-Dec-13 02:33 348 13.3
2018-Dec-13 02:28 348 13.3
2018-Dec-13 02:23 347 13.3
2018-Dec-13 02:18 316 13.3
2018-Dec-13 02:13 355 13.3
2018-Dec-13 02:08 335 13.3
2018-Dec-13 02:03 315 13.3
2018-Dec-13 01:58 314 13.3
2018-Dec-13 01:53 305 13.3
2018-Dec-13 01:48 305 13.3
2018-Dec-13 01:43 305 13.3
2018-Dec-13 01:38 305 13.3
2018-Dec-13 01:33 332 0 gusting 2 13.3
2018-Dec-13 01:28 323 0 gusting 2 13.3
2018-Dec-13 01:23 325 0 gusting 1 13.3
2018-Dec-13 01:18 314 13.3
2018-Dec-13 01:13 333 13.3
2018-Dec-13 01:08 334 13.3
2018-Dec-13 01:02 335 13.3
2018-Dec-13 00:57 340 13.3
2018-Dec-13 00:52 343 13.3
2018-Dec-13 00:47 343 13.3
2018-Dec-13 00:42 343 13.9
2018-Dec-13 00:37 349 13.9
2018-Dec-13 00:32 314 13.9
2018-Dec-13 00:27 321 13.9
2018-Dec-13 00:22 333 13.9
2018-Dec-13 00:17 347 13.9
2018-Dec-13 00:12 342 13.9
2018-Dec-13 00:07 354 13.9
2018-Dec-13 00:02 316 13.9
2018-Dec-12 23:57 330 14.4
2018-Dec-12 23:52 304 14.4
2018-Dec-12 23:47 304 0 gusting 2 14.4
2018-Dec-12 23:42 328 0 gusting 2 14.4
2018-Dec-12 23:37 314 0 gusting 2 14.4
2018-Dec-12 23:32 330 0 gusting 2 15.0
2018-Dec-12 23:27 349 0 gusting 2 15.0
2018-Dec-12 23:22 330 15.0
2018-Dec-12 23:17 322 15.0
2018-Dec-12 23:11 315 14.4
2018-Dec-12 23:04 315 15.0
2018-Dec-12 22:59 315 15.0
2018-Dec-12 22:54 315 15.0
2018-Dec-12 22:49 315 15.6
2018-Dec-12 22:44 315 15.6
2018-Dec-12 22:39 315 15.6
2018-Dec-12 22:34 315 16.1
2018-Dec-12 22:29 315 16.1
2018-Dec-12 22:24 315 16.7
2018-Dec-12 22:19 315 16.7
2018-Dec-12 22:14 315 16.7
2018-Dec-12 22:09 316 16.7
2018-Dec-12 22:03 316 16.1
2018-Dec-12 21:58 315 16.1
2018-Dec-12 21:53 315 16.1
2018-Dec-12 21:48 315 16.7
2018-Dec-12 21:43 315 16.7
2018-Dec-12 21:38 315 16.7
2018-Dec-12 21:33 315 16.7
2018-Dec-12 21:28 315 16.7
2018-Dec-12 21:23 315 16.7
2018-Dec-12 21:18 315 16.7
2018-Dec-12 21:13 315 16.7
2018-Dec-12 21:08 315 16.7
2018-Dec-12 21:03 315 16.7
2018-Dec-12 20:58 315 16.7
2018-Dec-12 20:53 315 16.7
2018-Dec-12 20:48 317 17.2
2018-Dec-12 20:43 293 17.2
2018-Dec-12 20:38 292 17.2
2018-Dec-12 20:33 333 17.8
2018-Dec-12 20:28 333 17.8
2018-Dec-12 20:23 333 17.8
2018-Dec-12 20:18 333 17.8
2018-Dec-12 20:13 333 17.8
2018-Dec-12 20:08 014 17.8
2018-Dec-12 20:00 341 17.8
2018-Dec-12 19:55 333 17.8
2018-Dec-12 19:50 013 17.8
2018-Dec-12 19:45 041 17.2
2018-Dec-12 19:40 335 17.2
2018-Dec-12 19:35 037 0 gusting 3 17.2
2018-Dec-12 19:30 344 0 gusting 3 17.8
2018-Dec-12 19:25 096 0 gusting 2 17.2
2018-Dec-12 19:20 006 0 gusting 3 17.2
2018-Dec-12 19:15 105 0 gusting 3 17.2
2018-Dec-12 19:10 098 1 gusting 6 17.2
2018-Dec-12 19:04 151 0 gusting 6 17.2